Macau, China

11:40 PM CST on January 22, 2017 (GMT +0800)
Macau International

Weather History for VMMC - September, 2013

Change the Weather History Date:

Sunday, September 29, 2013

  Actual Average Record
Temperature  
Mean Temperature 76 °F -  
Max Temperature 78 °F 79 °F 92 °F (2015)
Min Temperature 75 °F 73 °F 68 °F (1997)
Cooling Degree Days 12    
Growing Degree Days 26 (Base 50)    
Moisture  
Dew Point 71 °F    
Average Humidity 76    
Maximum Humidity 90    
Minimum Humidity 74    
Precipitation  
Precipitation 0.02 in - - ()
Sea Level Pressure  
Sea Level Pressure 29.75 in    
Wind  
Wind Speed 16 mph ()    
Max Wind Speed 21 mph    
Max Gust Speed -    
Visibility 4.2 miles    
Events Rain    
Averages and records for this station are not official NWS values.
T = Trace of Precipitation, MM = Missing Value Source: Averaged Metar Reports

Daily Weather History Graph

Daily Weather History Graph

Search for Another Location

Airport or City:

Trip Planner

Search our weather history database for the weather conditions in past years. The results will help you decide how hot, cold, wet, or windy it might be!

Date:

Astronomy

Sep. 29, 2013 Rise Set
Actual Time 6:16 AM CST 6:15 PM CST
Civil Twilight 5:54 AM CST 6:37 PM CST
Nautical Twilight 5:28 AM CST 7:03 PM CST
Astronomical Twilight 5:02 AM CST 7:29 PM CST
Moon 1:01 AM CST (9/29) 2:19 PM CST (9/29)
Length of Visible Light 12h 43m
Length of Day
11h 59m
Waning Crescent, 31% of the Moon is Illuminated
Sep 29
Waning Crescent
Oct 5
New
Oct 12
First Quarter
Oct 19
Full
Oct 27
Last Quarter

Hourly Weather History & Observations

Time (CST) Temp. Heat Index Dew Point Humidity Pressure Visibility Wind Dir Wind Speed Gust Speed Precip Events Conditions
12:00 AM 80.6 °F 84.6 °F 71.6 °F 74% 29.77 in 5.6 mi NE 18.4 mph - N/A   Mostly Cloudy
12:30 AM 80.6 °F 84.6 °F 71.6 °F 74% 29.74 in 5.6 mi NE 18.4 mph - N/A   Mostly Cloudy
1:00 AM 80.6 °F 84.6 °F 71.6 °F 74% 29.74 in 6.2 mi NE 16.1 mph - N/A   Scattered Clouds
1:30 AM 80.6 °F 84.6 °F 71.6 °F 74% 29.74 in 6.2 mi NE 13.8 mph - N/A   Scattered Clouds
2:00 AM 78 °F - 72 °F 76% 29.75 in 4 mi North 15.0 mph - -   Clear
2:00 AM 80.6 °F 84.6 °F 71.6 °F 74% 29.71 in 6.2 mi NNE 15.0 mph - N/A   Partly Cloudy
2:30 AM 80.6 °F 84.6 °F 71.6 °F 74% 29.71 in 6.2 mi North 17.3 mph - N/A   Partly Cloudy
3:00 AM 78.8 °F - 69.8 °F 74% 29.71 in 6.2 mi North 18.4 mph - N/A   Partly Cloudy
3:30 AM 78.8 °F - 69.8 °F 74% 29.71 in 6.2 mi NNE 19.6 mph - N/A   Partly Cloudy
4:00 AM 78.8 °F - 69.8 °F 74% 29.71 in 6.2 mi North 19.6 mph - N/A   Partly Cloudy
4:30 AM 78.8 °F - 69.8 °F 74% 29.71 in 6.2 mi NNE 19.6 mph - N/A   Partly Cloudy
5:00 AM 76 °F - 70 °F 76% 29.75 in 4 mi North 15.0 mph - -  
5:00 AM 78.8 °F - 69.8 °F 74% 29.71 in - North 19.6 mph - N/A   Clear
5:30 AM 78.8 °F - 69.8 °F 74% 29.71 in - North 19.6 mph - N/A   Clear
6:00 AM 78.8 °F - 69.8 °F 74% 29.74 in - North 19.6 mph - N/A   Clear
6:30 AM 78.8 °F - 69.8 °F 74% 29.74 in 3.7 mi North 19.6 mph - N/A   Partly Cloudy
7:00 AM 78.8 °F - 69.8 °F 74% 29.74 in 4.3 mi North 20.7 mph - N/A   Partly Cloudy
7:30 AM 78.8 °F - 69.8 °F 74% 29.74 in 4.3 mi North 20.7 mph - N/A   Partly Cloudy
8:00 AM 76 °F - 69 °F 75% 29.78 in 4 mi North 13.8 mph - -   Clear
8:00 AM 78.8 °F - 69.8 °F 74% 29.74 in 3.7 mi North 19.6 mph - N/A   Partly Cloudy
8:30 AM 78.8 °F - 69.8 °F 74% 29.77 in 3.7 mi North 19.6 mph - N/A   Partly Cloudy
9:00 AM 78.8 °F - 69.8 °F 74% 29.77 in 3.7 mi North 20.7 mph - N/A   Partly Cloudy
9:30 AM 78.8 °F - 69.8 °F 74% 29.80 in 3.1 mi North 20.7 mph - N/A   Haze
10:00 AM 78.8 °F - 69.8 °F 74% 29.80 in 3.1 mi NNE 19.6 mph - N/A   Haze
10:30 AM 78.8 °F - 69.8 °F 74% 29.80 in 3.1 mi North 19.6 mph - N/A   Haze
11:00 AM 78.8 °F - 69.8 °F 74% 29.80 in 3.1 mi NNE 19.6 mph - N/A   Haze
11:30 AM 78.8 °F - 69.8 °F 74% 29.80 in 3.1 mi NNE 19.6 mph - N/A   Haze
12:00 PM 78.8 °F - 69.8 °F 74% 29.77 in 3.1 mi NNE 19.6 mph - N/A   Haze
12:30 PM 78.8 °F - 69.8 °F 74% 29.77 in 3.1 mi NNE 19.6 mph - N/A Rain Light Rain
1:00 PM 78.8 °F - 69.8 °F 74% 29.74 in 3.1 mi NNE 20.7 mph - N/A Rain Light Rain
1:30 PM 78.8 °F - 69.8 °F 74% 29.74 in 3.1 mi North 20.7 mph - N/A Rain Light Rain
2:00 PM 76 °F - 71 °F 79% 29.76 in 2 mi North 15.0 mph - - Rain Light Rain Showers
2:00 PM 78.8 °F - 69.8 °F 74% 29.74 in 3.1 mi North 20.7 mph - N/A Rain Light Rain
2:30 PM 78.8 °F - 69.8 °F 74% 29.74 in - North 18.4 mph - N/A Rain Light Rain
3:00 PM 77.0 °F - 71.6 °F 83% 29.74 in - NNE 20.7 mph - N/A Rain Light Rain
3:30 PM 78.8 °F - 71.6 °F 78% 29.71 in 3.1 mi North 20.7 mph - N/A Rain Light Rain
4:00 PM 77.0 °F - 71.6 °F 83% 29.71 in 3.1 mi North 20.7 mph - N/A Rain Light Rain
4:30 PM 77.0 °F - 71.6 °F 83% 29.71 in 3.1 mi North 20.7 mph - N/A   Haze
5:00 PM 76 °F - 72 °F 82% 29.75 in 2 mi North 15.0 mph - -   Unknown Precipitation
5:00 PM 78.8 °F - 71.6 °F 78% 29.71 in 3.1 mi North 19.6 mph - N/A   Haze
5:30 PM 78.8 °F - 71.6 °F 78% 29.74 in 3.1 mi NNE 17.3 mph - N/A   Haze
6:00 PM 78.8 °F - 71.6 °F 78% 29.74 in 3.1 mi NNE 17.3 mph - N/A   Haze
6:30 PM 78.8 °F - 71.6 °F 78% 29.74 in 3.7 mi NNE 17.3 mph - N/A   Partly Cloudy
7:00 PM 78.8 °F - 71.6 °F 78% 29.74 in 3.7 mi NNE 16.1 mph - N/A   Partly Cloudy
7:30 PM 78.8 °F - 71.6 °F 78% 29.77 in 4.3 mi NNE 15.0 mph - N/A   Partly Cloudy
8:00 PM 77 °F - 72 °F 79% 29.80 in 3 mi NNE 13.8 mph - - Rain Rain Showers
8:00 PM 78.8 °F - 71.6 °F 78% 29.77 in 6.2 mi NNE 13.8 mph - N/A   Partly Cloudy
8:30 PM 78.8 °F - 71.6 °F 78% 29.80 in 6.2 mi NNE 13.8 mph - N/A   Partly Cloudy
9:00 PM 78.8 °F - 71.6 °F 78% 29.80 in 6.2 mi NE 15.0 mph - N/A   Partly Cloudy
9:30 PM 78.8 °F - 71.6 °F 78% 29.80 in 5.0 mi NNE 12.7 mph - N/A Rain Light Rain Showers
10:00 PM 78.8 °F - 71.6 °F 78% 29.80 in 5.0 mi NNE 13.8 mph - N/A Rain Light Rain Showers
10:30 PM 78.8 °F - 71.6 °F 78% 29.80 in 5.0 mi NNE 11.5 mph - N/A Rain Light Rain Showers
11:00 PM 75 °F - 73 °F 90% 29.83 in 2 mi NNE 11.5 mph - - Rain Rain Showers
11:00 PM 77.0 °F - 71.6 °F 83% 29.80 in 4.3 mi NNE 12.7 mph - N/A Rain Light Rain Showers
11:30 PM 77.0 °F - 71.6 °F 83% 29.80 in 4.3 mi NNE 13.8 mph - N/A Rain Light Rain Showers